Location: Laan Hart van Zuid
(52.2563°N, 6.7904°E)
Time: 00:33:31
(UTC+01:00)

ACS3 Solar Sail - Pass Details

Date: 27 January 2026
Orbit: 899 x 968 km, 97.2° (Epoch: 14 February)

Event Time Altitude Azimuth Distance (km) Brightness Sun altitude
Rises 03:09:42 0° 12° (NNE) 3,621 5.3 -46.1°
Reaches altitude 10° 03:12:10 10° 12° (NNE) 2,661 4.4 -45.8°
Enters shadow 03:12:15 10° 12° (NNE) 2,630 4.4 -45.7°
